Location: Elkol
(41.7238°N, 110.6124°W)
Time: 17:43:29
(UTC+00:00)

Envisat - Pass Details

Date: 22 January 2022
Orbit: 764 x 765 km, 98.2° (Epoch: 18 May)

Event Time Altitude Azimuth Distance (km) Brightness Sun altitude
Rises 11:48:04 0° 19° (NNE) 3,239 6.5 -32.5°
Reaches altitude 10° 11:50:28 10° 25° (NNE) 2,308 5.7 -32.0°
Maximum altitude 11:55:21 46° 99° (E) 1,028 3.9 -31.1°
Drops below altitude 10° 12:00:11 10° 172° (S) 2,293 5.5 -30.2°
Sets 12:02:34 0° 178° (S) 3,215 6.3 -29.8°
